Flag for Poland Weather past 2 weeks in Grudziądz, Poland

Now
68 °F

Scattered clouds.


Feels Like: 68 °F
Forecast: 54 / 64 °F
Wind: 3 mph from Southwest

Location: Torun

Current Time: Jul 29, 2015 at 2:05:47 PM

Latest Report: Jul 29, 2015 at 1:00 PM


Visibility: 25 mi

Pressure: 29.71 "Hg

Humidity: 46%

Dew point: 46 °F

Location of GrudziądzLocation

Historic Weather in Grudziądz — Graph

°F

Grudziądz temperature yesterday

Maximum temperature yesterday: 72 °F (at 2:00 PM)
Minimum temperature yesterday: 58 °F (at 3:00 AM)
Average temperature yesterday: 64 °F

Past Weeks' High & Low Weather Summary

 TemperatureHumidityPressure
High93 °F (Jul 18, 2:00 PM)99% (Jul 23, 5:00 AM)30.10 "Hg (Jul 23, 5:00 AM)
Low46 °F (Jul 27, 4:00 AM)31% (Jul 18, 1:00 PM)29.59 "Hg (Jul 28, 2:00 PM)
Average67 °F68%29.87 "Hg
* Reported Jul 14 12:00 Noon — Jul 29 12:00 Noon, Grudziądz, Weather by CustomWeather, © 2015

Note: Actual official high and low records may vary slightly from our data, if they occured in-between our weather recording intervals... More about our weather records

Advertising

Grudziądz weather history for previous 24 hours

 ConditionsComfort  
Time TempWeatherWind HumidityBarometerVisibility
12:00 PM
Wed, Jul 29
69 °FScattered clouds.5 mph45%29.72 "Hg17 mi
11:00 AM69 °FScattered clouds.5 mph49%29.72 "Hg25 mi
10:00 AM67 °FScattered clouds.3 mph58%29.73 "Hg17 mi
9:00 AM63 °FPartly sunny.3 mph66%29.74 "Hg25 mi
8:00 AM61 °FPartly sunny.2 mph72%29.74 "Hg22 mi
6:00 AM58 °FOvercast.2 mph78%29.73 "Hg28 mi
5:00 AM57 °FPartly sunny.1 mph78%29.72 "Hg31 mi
4:00 AM58 °FOvercast.2 mph74%29.71 "Hg28 mi
3:00 AM58 °FPassing clouds.2 mph76%29.71 "Hg28 mi
2:00 AM58 °FPassing clouds.1 mph74%29.70 "Hg31 mi
1:00 AM60 °FPassing clouds.2 mph74%29.70 "Hg28 mi
12:00 AM60 °FOvercast.2 mph75%29.70 "Hg28 mi
10:00 PM
Tue, Jul 28
61 °FPassing clouds.1 mph72%29.69 "Hg31 mi
9:00 PM63 °FPassing clouds.1 mph67%29.67 "Hg31 mi
8:00 PM65 °FPartly sunny.2 mph62%29.66 "Hg31 mi
7:00 PM67 °FPartly sunny.3 mph63%29.63 "Hg31 mi
6:00 PM67 °FPartly sunny.3 mph59%29.62 "Hg31 mi
5:00 PM68 °FScattered clouds.3 mph53%29.60 "Hg22 mi
4:00 PM72 °FScattered clouds.3 mph46%29.59 "Hg22 mi
3:00 PM69 °FPartly sunny.5 mph55%29.60 "Hg28 mi
2:00 PM72 °FPartly sunny.6 mph51%29.59 "Hg25 mi
Weather by CustomWeather, © 2015

See weather overviewHow to use our weather pages